﻿ProjectID	SampleID	SampleType	TaxonomyID	UniqCodeType	UniqCode	SampleName	ScientificName	CommonName	CollectionYear	CollectionMonth	CollectionDay	SamplingTimeStartEnd	SamplingTimeAMPM	SamplingDuration	WeatherStartEnd	CollectionRegion	CollectionCountry	CollectionArea	CollectionLatitudeFrom	CollectionLatitudeTo	CollectionLongitudeFrom	CollectionLongitudeTo	Sex	TissueOrgan	TissueLipid	TissueMoist	Weight	WeightUnit	Length	LengthUnit	LengthType	GrowthStage	Age	Disease	TemperatureStartEnd	WaterTemperatureStartEnd	pH	DO	EC	EC_temp	Salinity	SS	WaterDepthM	TransparencyM	WaterColor	SedimentTemperatureStartEnd	SedimentDepthM	SedimentAppearance	SedimentColor	SedimentSurfaceColor	SedimentOdor	SedimentImpurities	SedimentMoistureOnSiteAnalysis	IgnitionLossOnSiteAnalysis	SoilDepthM	FlowRate	MeanPM10	MeanTotalSuspendedParticles	HumidityStartEnd	WindDirectionStartEnd	WindSpeedMSStartEnd	AmountOfCollectedAirStartEnd	Remarks	RegisterDate	UpdateDate
PRA000013	SAA000460	ST009	29158			St.1	"Mytilus galloprovincialis"	"Mediterranean mussel"	2008	6						Asia	Japan	"Osaka Bay"	34.6271		135.0531944																																											2016/11/2	2017/1/16
PRA000013	SAA000461	ST009	29158			St.2	"Mytilus galloprovincialis"	"Mediterranean mussel"	2008	6						Asia	Japan	"Osaka Bay"	34.6319		135.081																																											2016/11/2	2017/1/16
PRA000013	SAA000462	ST009	29158			St.3	"Mytilus galloprovincialis"	"Mediterranean mussel"	2008	6						Asia	Japan	"Osaka Bay"	34.64238889		135.1238528																																											2016/11/2	2017/1/16
PRA000013	SAA000463	ST009	29158			St.4	"Mytilus galloprovincialis"	"Mediterranean mussel"	2008	6						Asia	Japan	"Osaka Bay"	34.64121667		135.1339																																											2016/11/2	2017/1/16
PRA000013	SAA000464	ST009	29158			St.8	"Mytilus galloprovincialis"	"Mediterranean mussel"	2006	10						Asia	Japan	"Osaka Bay"	34.65835833		135.433525																																											2016/11/2	2017/1/16
PRA000013	SAA000465	ST009	29158			St.9	"Mytilus galloprovincialis"	"Mediterranean mussel"	2006	10						Asia	Japan	"Osaka Bay"	34.63659722		135.4119																																											2016/11/2	2017/1/16
PRA000013	SAA000466	ST009	29158			St.10	"Mytilus galloprovincialis"	"Mediterranean mussel"	2006	10						Asia	Japan	"Osaka Bay"	34.61972778		135.412675																																											2016/11/2	2017/1/16
PRA000013	SAA000467	ST009	29158			St.12	"Mytilus galloprovincialis"	"Mediterranean mussel"	2006	10						Asia	Japan	"Osaka Bay"	34.51168333		135.3818917																																											2016/11/2	2017/1/16
PRA000013	SAA000468	ST009	29158			St.13	"Mytilus galloprovincialis"	"Mediterranean mussel"	2006	10						Asia	Japan	"Osaka Bay"	34.50328611		135.3811694																																											2016/11/2	2017/1/16
PRA000013	SAA000469	ST009	29158			St.15	"Mytilus galloprovincialis"	"Mediterranean mussel"	2006	10						Asia	Japan	"Osaka Bay"	34.46794722		135.3597389																																											2016/11/2	2017/1/16
PRA000013	SAA000470	ST009	29159			St.5	"Crassostrea gigas"	"Pacific oyster"	2006	10						Asia	Japan	"Osaka Bay"	34.68		135.3855167																																											2016/11/2	2017/1/16
PRA000013	SAA000471	ST009	29159			St.6	"Crassostrea gigas"	"Pacific oyster"	2006	10						Asia	Japan	"Osaka Bay"	34.69585		135.3988833																																											2016/11/2	2017/1/16
PRA000013	SAA000472	ST009	29159			St.7	"Crassostrea gigas"	"Pacific oyster"	2006	10						Asia	Japan	"Osaka Bay"	34.6729		135.4031																																											2016/11/2	2017/1/16
PRA000013	SAA000473	ST009	29159			St.10	"Crassostrea gigas"	"Pacific oyster"	2006	10						Asia	Japan	"Osaka Bay"	34.61972778		135.412675																																											2016/11/2	2017/1/16
PRA000013	SAA000474	ST009	29159			St.11	"Crassostrea gigas"	"Pacific oyster"	2006	10						Asia	Japan	"Osaka Bay"	34.55468333		135.4440333																																											2016/11/2	2017/1/16
PRA000013	SAA000475	ST009	29159			St.13	"Crassostrea gigas"	"Pacific oyster"	2006	10						Asia	Japan	"Osaka Bay"	34.50328611		135.3811694																																											2016/11/2	2017/1/16
PRA000013	SAA000476	ST009	29159			St.14	"Crassostrea gigas"	"Pacific oyster"	2006	10						Asia	Japan	"Osaka Bay"	34.50398333		135.3797																																											2016/11/2	2017/1/16
PRA000013	SAA000477	ST009	29159			St.15	"Crassostrea gigas"	"Pacific oyster"	2006	10						Asia	Japan	"Osaka Bay"	34.46794722		135.3597389																																											2016/11/2	2017/1/16
PRA000013	SAA000478	ST009	29159			St.16	"Crassostrea gigas"	"Pacific oyster"	2006	10						Asia	Japan	"Osaka Bay"	34.42211111		135.3353333																																											2016/11/2	2017/1/16
PRA000013	SAA000479	ST009	29159			St.17	"Crassostrea gigas"	"Pacific oyster"	2008	10						Asia	Japan	"Osaka Bay"	34.35088056		135.2245278																																											2016/11/2	2017/1/16
PRA000013	SAA000480	ST009	29159			St.18	"Crassostrea gigas"	"Pacific oyster"	2008	10						Asia	Japan	"Osaka Bay"	34.33844444		135.1768333																																											2016/11/2	2017/1/16
PRA000013	SAA000481	ST009	29159			St.19	"Crassostrea gigas"	"Pacific oyster"	2008	10						Asia	Japan	"Osaka Bay"	34.27728333		135.0720833																																											2016/11/2	2017/1/16
